AC0YE Weather Reports


time (UTC)temp
F
wind
direction
speed
knots
gust
knots
rain 1hr
in
rain 24hr
in
rain mn
in
humidity
%
barometer
mb
20260505022516 59 338 3.5 7.8 0.00 0.00 0.00 42 1004.4
20260505022036 59 315 3.5 7.8 0.00 0.00 0.00 42 1004.3
20260505021516 59 315 2.6 6.1 0.00 0.00 0.00 42 1004.1
20260505021036 60 315 2.6 6.1 0.00 0.00 0.00 42 1004.0
20260505020516 60 315 2.6 6.1 0.00 0.00 0.00 42 1003.8
20260505020016 60 315 2.6 7.8 0.00 0.00 0.00 42 1003.5
20260505015516 60 315 2.6 7.0 0.00 0.00 0.00 41 1003.4
20260505015016 60 315 2.6 8.7 0.00 0.00 0.00 41 1003.4
20260505014516 61 338 3.5 6.1 0.00 0.00 0.00 40 1003.1
20260505014016 61 315 3.5 7.0 0.00 0.00 0.00 40 1003.0
20260505013536 61 338 3.5 7.8 0.00 0.00 0.00 39 1002.7
20260505013016 62 315 3.5 8.7 0.00 0.00 0.00 39 1002.6
20260505012516 62 315 2.6 7.0 0.00 0.00 0.00 38 1002.4
20260505012016 62 338 3.5 7.0 0.00 0.00 0.00 37 1002.2
20260505011516 63 315 3.5 9.6 0.00 0.00 0.00 37 1002.1
20260505011016 63 315 4.3 9.6 0.00 0.00 0.00 36 1002.1
20260505010515 63 315 4.3 7.8 0.00 0.00 0.00 37 1001.9
20260505010016 64 338 3.5 7.8 0.00 0.00 0.00 36 1001.9
20260505005516 64 315 4.3 11.3 0.00 0.00 0.00 36 1001.8
20260505005016 65 315 4.3 14.8 0.00 0.00 0.00 35 1001.9
20260505004515 66 315 4.3 11.3 0.00 0.00 0.00 35 1001.6
20260505004016 66 315 6.1 14.8 0.00 0.00 0.00 35 1001.6
20260505003516 66 315 6.1 13.0 0.00 0.00 0.00 36 1001.4
20260505003016 67 338 4.3 11.3 0.00 0.00 0.00 35 1001.3
20260505002515 67 315 6.1 16.5 0.00 0.00 0.00 35 1001.2
20260505002055 68 338 5.2 12.2 0.00 0.00 0.00 35 1001.2
20260505001516 68 315 6.1 12.2 0.00 0.00 0.00 35 1001.1
20260505001036 69 315 6.1 12.2 0.00 0.00 0.00 35 1001.1
20260505000515 69 315 7.0 13.9 0.00 0.00 0.00 35 1000.9
20260505000016 70 315 7.8 13.9 0.00 0.00 0.00 35 1000.8
20260504235515 70 315 7.0 16.5 0.00 0.00 0.00 35 1000.5
20260504235015 71 315 7.0 15.6 0.00 0.00 0.00 34 1000.6
20260504234516 72 315 6.1 14.8 0.00 0.00 0.00 34 1000.5
20260504234015 72 315 5.2 13.9 0.00 0.00 0.00 34 1000.3
20260504233516 73 315 4.3 12.2 0.00 0.00 0.00 35 1000.4
20260504233015 73 315 5.2 10.4 0.00 0.00 0.00 34 1000.3
20260504232516 74 338 5.2 10.4 0.00 0.00 0.00 34 1000.3
20260504232016 74 315 5.2 13.0 0.00 0.00 0.00 33 1000.2
20260504231536 74 315 5.2 10.4 0.00 0.00 0.00 34 1000.3
20260504231036 75 315 4.3 8.7 0.00 0.00 0.00 35 1000.0
20260504230515 75 315 4.3 10.4 0.00 0.00 0.00 35 1000.0
20260504230015 75 315 5.2 10.4 0.00 0.00 0.00 34 1000.0
20260504225515 76 315 5.2 13.9 0.00 0.00 0.00 34 999.7
20260504225035 76 338 5.2 11.3 0.00 0.00 0.00 34 999.8
20260504224515 76 315 5.2 12.2 0.00 0.00 0.00 33 999.6
20260504224015 77 315 7.0 11.3 0.00 0.00 0.00 34 999.6
20260504223516 77 315 6.1 13.9 0.00 0.00 0.00 34 999.5
20260504223015 77 315 6.1 17.4 0.00 0.00 0.00 35 999.3
20260504222535 78 315 5.2 10.4 0.00 0.00 0.00 35 999.2
20260504222035 78 315 7.0 13.0 0.00 0.00 0.00 34 999.2
20260504221515 78 315 7.0 19.1 0.00 0.00 0.00 34 999.0
20260504221016 79 315 7.0 13.9 0.00 0.00 0.00 36 999.1
20260504220515 79 315 5.2 9.6 0.00 0.00 0.00 37 998.9
20260504220015 79 338 6.1 13.0 0.00 0.00 0.00 38 998.9
20260504215515 80 315 5.2 11.3 0.00 0.00 0.00 37 998.9
20260504215116 80 315 5.2 12.2 0.00 0.00 0.00 38 998.6
20260504214515 80 315 5.2 10.4 0.00 0.00 0.00 37 998.8
20260504214015 80 315 4.3 7.8 0.00 0.00 0.00 37 998.7
20260504213515 80 315 7.0 13.0 0.00 0.00 0.00 37 998.7
20260504213015 81 315 4.3 12.2 0.00 0.00 0.00 36 998.7
20260504212515 81 293 6.1 15.6 0.00 0.00 0.00 32 998.6
20260504212015 82 293 6.1 15.6 0.00 0.00 0.00 31 998.4
20260504211515 82 293 7.8 16.5 0.00 0.00 0.00 30 998.4
20260504211015 82 293 7.8 20.9 0.00 0.00 0.00 30 998.4
20260504210515 81 293 5.2 14.8 0.00 0.00 0.00 32 998.4
20260504210035 81 270 7.0 14.8 0.00 0.00 0.00 31 998.6
20260504205515 81 293 3.5 7.8 0.00 0.00 0.00 34 998.4
20260504205035 82 293 4.3 8.7 0.00 0.00 0.00 35 998.8
20260504204535 82 293 5.2 12.2 0.00 0.00 0.00 34 998.8
20260504204015 81 270 5.2 13.0 0.00 0.00 0.00 34 998.9
20260504203515 81 270 5.2 10.4 0.00 0.00 0.00 35 999.1
20260504203035 81 293 4.3 11.3 0.00 0.00 0.00 35 999.1
20260504202535 81 293 5.2 9.6 0.00 0.00 0.00 35 999.2
20260504202015 80 270 5.2 11.3 0.00 0.00 0.00 35 999.2
20260504201555 80 293 4.3 8.7 0.00 0.00 0.00 35 999.2
20260504201015 81 248 5.2 11.3 0.00 0.00 0.00 35 999.2
20260504200515 81 293 7.0 15.6 0.00 0.00 0.00 34 999.3
20260504200015 81 293 7.0 13.0 0.00 0.00 0.00 34 999.3
20260504195517 81 293 7.0 15.6 0.00 0.00 0.00 34 999.3
20260504195017 81 293 5.2 12.2 0.00 0.00 0.00 34 999.4
20260504194517 81 248 4.3 11.3 0.00 0.00 0.00 34 999.4
20260504194017 81 270 4.3 11.3 0.00 0.00 0.00 36 999.6
20260504193517 81 315 4.3 10.4 0.00 0.00 0.00 35 999.5
20260504193017 80 248 3.5 7.0 0.00 0.00 0.00 36 999.5
20260504192537 80 270 4.3 10.4 0.00 0.00 0.00 36 999.7
20260504192017 80 293 4.3 9.6 0.00 0.00 0.00 36 999.6
20260504191517 80 315 4.3 9.6 0.00 0.00 0.00 35 999.6
20260504191017 80 270 5.2 11.3 0.00 0.00 0.00 35 999.7
20260504190517 80 293 4.3 10.4 0.00 0.00 0.00 36 999.7
20260504190017 80 293 4.3 10.4 0.00 0.00 0.00 35 999.7
20260504185537 80 293 6.1 18.2 0.00 0.00 0.00 34 999.8
20260504185017 81 248 5.2 18.2 0.00 0.00 0.00 34 1000.0
20260504184517 80 225 4.3 9.6 0.00 0.00 0.00 36 999.9
20260504184017 80 248 5.2 11.3 0.00 0.00 0.00 34 999.8
20260504183537 80 293 5.2 10.4 0.00 0.00 0.00 35 999.9
20260504183017 80 270 5.2 11.3 0.00 0.00 0.00 34 1000.0
20260504182517 81 293 5.2 10.4 0.00 0.00 0.00 34 1000.1
20260504182017 81 248 5.2 9.6 0.00 0.00 0.00 34 1000.0
20260504181537 80 248 4.3 9.6 0.00 0.00 0.00 35 1000.1
20260504181017 81 248 6.1 15.6 0.00 0.00 0.00 33 1000.2
20260504180517 80 270 5.2 10.4 0.00 0.00 0.00 34 1000.3
20260504180017 80 248 3.5 7.0 0.00 0.00 0.00 35 1000.1
20260504175517 80 270 5.2 13.9 0.00 0.00 0.00 34 1000.2
20260504175015 80 270 4.3 9.6 0.00 0.00 0.00 38 1000.1
20260504174517 80 248 4.3 11.3 0.00 0.00 0.00 35 1000.1
20260504174017 80 293 5.2 13.0 0.00 0.00 0.00 37 1000.2
20260504173537 80 248 3.5 8.7 0.00 0.00 0.00 36 1000.1
20260504173017 80 248 4.3 12.2 0.00 0.00 0.00 37 1000.2
20260504172517 80 248 3.5 9.6 0.00 0.00 0.00 37 1000.1
20260504172017 79 248 4.3 7.8 0.00 0.00 0.00 38 1000.3
20260504171517 79 225 2.6 6.1 0.00 0.00 0.00 38 1000.2
20260504171017 79 248 3.5 7.0 0.00 0.00 0.00 40 1000.3
20260504170517 78 225 2.6 7.8 0.00 0.00 0.00 40 1000.5
20260504151017 70 248 2.6 6.1 0.00 0.00 0.00 46 1001.7
20260504150517 70 248 3.5 7.8 0.00 0.00 0.00 48 1001.8
20260504141017 67 225 2.6 7.0 0.00 0.00 0.00 49 1002.5
20260504140517 67 248 2.6 8.7 0.00 0.00 0.00 49 1002.6
20260504130517 61 225 1.7 3.5 0.00 0.00 0.00 55 1002.9
20260504110516 52 158 0.9 1.7 0.00 0.00 0.00 62 1003.0
20260504100516 51 0.0 0.9 0.00 0.00 0.00 61 1003.7
20260504081516 53 0.0 0.9 0.00 0.00 0.00 59 1004.8
20260504081016 53 0.0 0.0 0.00 0.00 0.00 59 1004.9
20260504080516 53 0.0 0.0 0.00 0.00 0.00 60 1005.0
20260504050516 54 0.0 0.0 0.00 0.00 0.00 58 1006.5
20260504050016 54 0.0 0.0 0.00 0.00 0.00 58 1006.6
20260504045516 54 0.0 0.9 0.00 0.00 0.00 58 1006.6
20260504045016 54 0.0 0.0 0.00 0.00 0.00 56 1006.6
20260504044516 55 0.0 0.0 0.00 0.00 0.00 55 1006.8
20260504044016 56 0.0 0.0 0.00 0.00 0.00 55 1006.9
20260504043536 56 0.0 0.0 0.00 0.00 0.00 54 1006.9
20260504043016 56 0.0 0.0 0.00 0.00 0.00 55 1006.8
20260504042516 56 0.0 0.0 0.00 0.00 0.00 53 1006.9
20260504042016 57 0.0 0.0 0.00 0.00 0.00 53 1007.0
20260504041516 57 0.0 0.0 0.00 0.00 0.00 52 1007.1
20260504041016 57 0.0 0.0 0.00 0.00 0.00 52 1007.0
20260504040536 57 0.0 0.0 0.00 0.00 0.00 51 1007.0
20260504040016 58 0.0 0.0 0.00 0.00 0.00 51 1007.1
20260504035516 58 0.0 0.0 0.00 0.00 0.00 50 1007.2
20260504035016 59 0.0 0.0 0.00 0.00 0.00 49 1007.2
20260504034516 59 0.0 0.0 0.00 0.00 0.00 48 1007.3
20260504034016 60 0.0 0.0 0.00 0.00 0.00 48 1007.3
20260504033516 60 0.0 0.9 0.00 0.00 0.00 47 1007.3
20260504033016 61 0.0 0.9 0.00 0.00 0.00 46 1007.4
20260504032556 61 0.0 0.0 0.00 0.00 0.00 46 1007.3
20260504032016 61 0.0 0.9 0.00 0.00 0.00 46 1007.4
20260504031516 61 0.0 0.9 0.00 0.00 0.00 45 1007.4
20260504031016 61 0.0 0.9 0.00 0.00 0.00 45 1007.4
20260504030516 62 0.0 0.9 0.00 0.00 0.00 45 1007.4
20260504030016 62 0.0 0.9 0.00 0.00 0.00 44 1007.2
20260504025516 62 0.0 0.9 0.00 0.00 0.00 44 1007.2
20260504025036 62 0.0 1.7 0.00 0.00 0.00 44 1007.2
20260504024516 62 0.0 0.0 0.00 0.00 0.00 44 1007.2
20260504024016 62 0.0 0.9 0.00 0.00 0.00 44 1007.2
20260504023536 62 0.0 0.9 0.00 0.00 0.00 44 1007.1
20260504023016 62 0.0 0.0 0.00 0.00 0.00 44 1007.1